Weather History for Pampa, TX

Change the Weather History Date:

Sunday, February 3, 2013

  Actual Average Record
Temperature  
Mean Temperature 46 °F -  
Max Temperature 59 °F 46 °F 69 °F (1987)
Min Temperature 32 °F 22 °F -6 °F (1989)
Degree Days  
Heating Degree Days 20    
Moisture  
Dew Point 22 °F    
Average Humidity 43    
Maximum Humidity 60    
Minimum Humidity 19    
Precipitation  
Precipitation 0.00 in - - ()
Sea Level Pressure  
Sea Level Pressure 30.10 in    
Wind  
Wind Speed 14 mph (SSW)    
Max Wind Speed 30 mph    
Max Gust Speed 36 mph    
Visibility 10 miles    
Events      
Averages and records for this station are not official NWS values.
T = Trace of Precipitation, MM = Missing Value Source: NWS Daily Summary

Daily Weather History Graph

Daily Weather History Graph

Search for Another Location

Airport:

Trip Planner

Search our weather history database for the weather conditions in past years. The results will help you decide how hot, cold, wet, or windy it might be!

Date:

Astronomy

Feb. 03, 2013 Rise Set
Actual Time 7:42 AM CST 6:14 PM CST
Civil Twilight 7:15 AM CST 6:40 PM CST
Nautical Twilight 6:44 AM CST 7:11 PM CST
Astronomical Twilight 6:15 AM CST 7:41 PM CST
Moon 1:11 AM CST (2/3) 11:54 AM CST (2/3)
Length of Visible Light 11h 25m
Length of Day
10h 32m
Waning Gibbous, 48% of the Moon is Illuminated
Feb 3
Waning Gibbous
Feb 10
New
Feb 17
First Quarter
Feb 25
Full
Mar 4
Last Quarter

Hourly Weather History & Observations

Time (CST) Temp. Windchill Dew Point Humidity Pressure Visibility Wind Dir Wind Speed Gust Speed Precip Events Conditions
12:15 AM 32.0 °F 23.0 °F 19.4 °F 60% 30.30 in 10.0 mi SSW 11.5 mph - N/A   Clear
12:35 AM 32.0 °F 22.5 °F 19.4 °F 60% 30.30 in 10.0 mi SSW 12.7 mph - N/A   Clear
12:55 AM 33.8 °F 25.8 °F 19.4 °F 56% 30.30 in 10.0 mi SSW 10.4 mph - N/A   Clear
1:15 AM 33.8 °F 25.8 °F 19.4 °F 56% 30.30 in 10.0 mi SSW 10.4 mph - N/A   Clear
1:35 AM 32.0 °F 23.0 °F 19.4 °F 60% 30.30 in 10.0 mi SSW 11.5 mph - N/A   Clear
1:55 AM 33.8 °F 24.8 °F 19.4 °F 56% 30.29 in 10.0 mi SSW 12.7 mph - N/A   Clear
2:15 AM 32.0 °F 22.5 °F 19.4 °F 60% 30.28 in 10.0 mi SSW 12.7 mph - N/A   Clear
2:35 AM 33.8 °F 25.3 °F 19.4 °F 56% 30.28 in 10.0 mi SSW 11.5 mph - N/A   Clear
2:55 AM 33.8 °F 25.3 °F 19.4 °F 56% 30.27 in 10.0 mi SW 11.5 mph - N/A   Clear
3:15 AM 33.8 °F 25.8 °F 19.4 °F 56% 30.27 in 10.0 mi SW 10.4 mph - N/A   Clear
3:35 AM 35.6 °F 26.6 °F 19.4 °F 52% 30.26 in 10.0 mi SW 13.8 mph - N/A   Clear
3:55 AM 37.4 °F 28.9 °F 19.4 °F 48% 30.25 in 10.0 mi SW 13.8 mph - N/A   Clear
4:15 AM 37.4 °F 28.5 °F 17.6 °F 45% 30.25 in 10.0 mi SW 15.0 mph - N/A   Clear
4:35 AM 37.4 °F 28.9 °F 19.4 °F 48% 30.24 in 10.0 mi SW 13.8 mph - N/A   Clear
4:55 AM 37.4 °F 28.5 °F 19.4 °F 48% 30.24 in 10.0 mi SW 15.0 mph - N/A   Clear
5:15 AM 37.4 °F 28.5 °F 19.4 °F 48% 30.24 in 10.0 mi SW 15.0 mph - N/A   Clear
5:35 AM 37.4 °F 29.3 °F 19.4 °F 48% 30.24 in 10.0 mi SW 12.7 mph - N/A   Clear
5:55 AM 37.4 °F 29.8 °F 19.4 °F 48% 30.24 in 10.0 mi SW 11.5 mph - N/A   Clear
6:15 AM 35.6 °F 28.0 °F 19.4 °F 52% 30.24 in 10.0 mi WSW 10.4 mph - N/A   Clear
6:35 AM 33.8 °F 27.0 °F 19.4 °F 56% 30.24 in 10.0 mi West 8.1 mph - N/A   Clear
6:55 AM 33.8 °F 27.0 °F 19.4 °F 56% 30.24 in 10.0 mi West 8.1 mph - N/A   Clear
7:15 AM 33.8 °F 25.8 °F 21.2 °F 60% 30.23 in 10.0 mi WSW 10.4 mph - N/A   Clear
7:35 AM 33.8 °F 26.4 °F 21.2 °F 60% 30.23 in 10.0 mi WSW 9.2 mph - N/A   Clear
7:55 AM 33.8 °F 25.8 °F 21.2 °F 60% 30.23 in 10.0 mi WSW 10.4 mph - N/A   Clear
8:15 AM 35.6 °F 26.6 °F 21.2 °F 56% 30.23 in 10.0 mi SW 13.8 mph - N/A   Clear
8:35 AM 37.4 °F 28.2 °F 21.2 °F 52% 30.22 in 10.0 mi SW 16.1 mph - N/A   Clear
8:55 AM 41.0 °F 33.1 °F 21.2 °F 45% 30.22 in 10.0 mi SW 15.0 mph - N/A   Clear
9:15 AM 44.6 °F 37.8 °F 21.2 °F 39% 30.21 in 10.0 mi SW 15.0 mph 21.9 mph N/A   Clear
9:35 AM 46.4 °F 39.2 °F 21.2 °F 37% 30.21 in 10.0 mi SW 18.4 mph 25.3 mph N/A   Clear
9:55 AM 50.0 °F - 21.2 °F 32% 30.20 in 10.0 mi SW 20.7 mph 26.5 mph N/A   Clear
10:15 AM 51.8 °F - 19.4 °F 28% 30.19 in 10.0 mi SW 20.7 mph 28.8 mph N/A   Clear
10:35 AM 53.6 °F - 17.6 °F 24% 30.19 in 10.0 mi SW 23.0 mph 27.6 mph N/A   Clear
10:55 AM 55.4 °F - 17.6 °F 23% 30.19 in 10.0 mi SW 21.9 mph 26.5 mph N/A   Clear
11:15 AM 55.4 °F - 17.6 °F 23% 30.19 in 10.0 mi SW 19.6 mph 27.6 mph N/A   Clear
11:35 AM 55.4 °F - 15.8 °F 21% 30.17 in 10.0 mi SW 25.3 mph 29.9 mph N/A   Clear
11:55 AM 57.2 °F - 15.8 °F 20% 30.16 in 10.0 mi SSW 23.0 mph 28.8 mph N/A   Clear
12:15 PM 59.0 °F - 15.8 °F 19% 30.14 in 10.0 mi SW 24.2 mph 32.2 mph N/A   Clear
12:35 PM 57.2 °F - 17.6 °F 21% 30.13 in 10.0 mi SSW 27.6 mph 34.5 mph N/A   Clear
12:55 PM 57.2 °F - 19.4 °F 23% 30.11 in 10.0 mi SSW 25.3 mph 35.7 mph N/A   Clear
1:15 PM 59.0 °F - 17.6 °F 20% 30.09 in 10.0 mi SW 25.3 mph 35.7 mph N/A   Clear
1:35 PM 59.0 °F - 17.6 °F 20% 30.07 in 10.0 mi SSW 26.5 mph 32.2 mph N/A   Clear
1:55 PM 59.0 °F - 17.6 °F 20% 30.06 in 10.0 mi SSW 24.2 mph 31.1 mph N/A   Clear
2:15 PM 55.4 °F - 19.4 °F 25% 30.05 in 10.0 mi SSW 25.3 mph 34.5 mph N/A   Clear
2:35 PM 57.2 °F - 19.4 °F 23% 30.03 in 10.0 mi SSW 26.5 mph 32.2 mph N/A   Clear
2:55 PM 59.0 °F - 19.4 °F 22% 30.01 in 10.0 mi SSW 29.9 mph 35.7 mph N/A   Clear
3:15 PM 59.0 °F - 19.4 °F 22% 30.00 in 10.0 mi SSW 25.3 mph 29.9 mph N/A   Clear
3:35 PM 59.0 °F - 17.6 °F 20% 29.99 in 10.0 mi SSW 25.3 mph 34.5 mph N/A   Clear
4:15 PM 59.0 °F - 21.2 °F 23% 29.97 in 10.0 mi SSW 23.0 mph 32.2 mph N/A   Clear
4:55 PM 57.2 °F - 23.0 °F 27% 29.96 in 10.0 mi SSW 24.2 mph 29.9 mph N/A   Clear
5:35 PM 55.4 °F - 23.0 °F 29% 29.94 in 10.0 mi SSW 16.1 mph 21.9 mph N/A   Clear
5:55 PM 53.6 °F - 24.8 °F 33% 29.94 in 10.0 mi SSW 16.1 mph - N/A   Clear
6:15 PM 53.6 °F - 24.8 °F 33% 29.94 in 10.0 mi SSW 11.5 mph - N/A   Clear
6:35 PM 51.8 °F - 26.6 °F 38% 29.93 in 10.0 mi SSW 11.5 mph - N/A   Clear
6:55 PM 51.8 °F - 26.6 °F 38% 29.92 in 10.0 mi South 12.7 mph - N/A   Clear
7:15 PM 51.8 °F - 28.4 °F 41% 29.92 in 10.0 mi South 12.7 mph - N/A   Clear
7:35 PM 50.0 °F - 30.2 °F 47% 29.91 in 10.0 mi South 11.5 mph - N/A   Clear
7:55 PM 50.0 °F - 32.0 °F 50% 29.92 in 10.0 mi SSW 8.1 mph - N/A   Clear
8:15 PM 50.0 °F - 32.0 °F 50% 29.91 in 10.0 mi SSW 11.5 mph - N/A   Clear
8:35 PM 50.0 °F - 32.0 °F 50% 29.91 in 10.0 mi South 9.2 mph - N/A   Scattered Clouds
8:55 PM 50.0 °F - 32.0 °F 50% 29.90 in 10.0 mi South 12.7 mph - N/A   Scattered Clouds
9:15 PM 50.0 °F - 32.0 °F 50% 29.89 in 10.0 mi South 15.0 mph - N/A   Scattered Clouds
9:35 PM 50.0 °F - 32.0 °F 50% 29.89 in 10.0 mi South 13.8 mph - N/A   Scattered Clouds
9:55 PM 48.2 °F - 32.0 °F 54% 29.88 in 10.0 mi South 13.8 mph - N/A   Clear
10:15 PM 48.2 °F - 32.0 °F 54% 29.87 in 10.0 mi South 12.7 mph - N/A   Clear
10:35 PM 46.4 °F 41.9 °F 32.0 °F 57% 29.87 in 10.0 mi South 9.2 mph - N/A   Clear
10:55 PM 46.4 °F 41.5 °F 32.0 °F 57% 29.86 in 10.0 mi South 10.4 mph - N/A   Clear
11:15 PM 48.2 °F - 33.8 °F 58% 29.86 in 10.0 mi South 10.4 mph - N/A   Scattered Clouds
11:35 PM 48.2 °F - 33.8 °F 58% 29.85 in 10.0 mi South 10.4 mph - N/A   Mostly Cloudy
11:55 PM 48.2 °F - 33.8 °F 58% 29.84 in 10.0 mi South 12.7 mph - N/A   Mostly Cloudy